MTN7102 TISX-TJSJ

Flight info

Callsign MTN7102
Flight time 0h 40m
Altitude 12000
Route HMLTN9 CHAKA DCT SNGRA DCT REKUA DCT SJU
Aircraft C208/L-SDFGR/C

Departure

Time 2026-04-26 13:52
Airport Henry E. Rohlsen Airport (TISX)

Arrival

Time 2026-04-26 14:33
Airport Luis Munoz Marin International Airport (TJSJ)
Time Latitude Longitude Altitude Speed Heading
2026-04-26 13:39 17.70030 -64.79221 39 ft 0 kts 181°
2026-04-26 13:49 17.70025 -64.79223 38 ft 5 kts 202°
2026-04-26 13:49 17.70012 -64.79268 39 ft 8 kts 270°
2026-04-26 13:49 17.70030 -64.79322 40 ft 9 kts 338°
2026-04-26 13:50 17.70094 -64.79340 41 ft 11 kts 309°
2026-04-26 13:50 17.70095 -64.79418 42 ft 12 kts 263°
2026-04-26 13:50 17.70086 -64.79505 44 ft 12 kts 264°
2026-04-26 13:50 17.70078 -64.79596 45 ft 13 kts 264°
2026-04-26 13:51 17.70072 -64.79690 47 ft 13 kts 291°
2026-04-26 13:51 17.70110 -64.79774 48 ft 11 kts 293°
2026-04-26 13:51 17.70144 -64.79856 49 ft 13 kts 292°
2026-04-26 13:51 17.70191 -64.79908 49 ft 4 kts 41°
2026-04-26 13:52 17.70201 -64.79787 48 ft 40 kts 85°
2026-04-26 13:52 17.70247 -64.79247 104 ft 95 kts 85°
2026-04-26 13:52 17.70393 -64.78548 400 ft 99 kts 77°
2026-04-26 13:52 17.70379 -64.77856 800 ft 90 kts 98°
2026-04-26 13:53 17.70261 -64.77265 1248 ft 81 kts 101°
2026-04-26 13:53 17.70275 -64.76690 1664 ft 81 kts 59°
2026-04-26 13:53 17.70593 -64.76163 1973 ft 85 kts 72°
2026-04-26 13:53 17.70872 -64.75654 2526 ft 80 kts 64°
2026-04-26 13:54 17.71104 -64.75131 2971 ft 79 kts 67°
2026-04-26 13:54 17.71337 -64.74613 3427 ft 78 kts 68°
2026-04-26 13:54 17.71570 -64.74100 3818 ft 78 kts 67°
2026-04-26 13:55 17.72046 -64.73069 4587 ft 79 kts 67°
2026-04-26 13:55 17.72208 -64.72723 4871 ft 81 kts 67°
2026-04-26 13:55 17.72797 -64.71474 5831 ft 82 kts 67°
2026-04-26 13:56 17.73107 -64.70974 6273 ft 85 kts 36°
2026-04-26 13:56 17.73676 -64.70858 6662 ft 84 kts 353°
2026-04-26 13:56 17.74161 -64.71138 7014 ft 80 kts 300°
2026-04-26 13:56 17.74485 -64.71605 7429 ft 79 kts 303°
2026-04-26 13:57 17.74850 -64.72118 7744 ft 93 kts 304°
2026-04-26 13:57 17.75234 -64.72658 8194 ft 92 kts 302°
2026-04-26 13:57 17.75610 -64.73198 8660 ft 91 kts 302°
2026-04-26 13:57 17.75980 -64.73734 9067 ft 90 kts 303°
2026-04-26 13:58 17.76342 -64.74260 9461 ft 88 kts 302°
2026-04-26 13:58 17.76700 -64.74777 9841 ft 87 kts 302°
2026-04-26 13:58 17.77051 -64.75289 10196 ft 86 kts 302°
2026-04-26 13:58 17.77405 -64.75798 10521 ft 86 kts 301°
2026-04-26 13:59 17.77757 -64.76304 10865 ft 86 kts 301°
2026-04-26 13:59 17.78108 -64.76811 11220 ft 86 kts 301°
2026-04-26 13:59 17.78457 -64.77318 11543 ft 86 kts 301°
2026-04-26 14:00 17.79668 -64.79053 12074 ft 128 kts 302°
2026-04-26 14:00 17.80221 -64.79851 12077 ft 144 kts 302°
2026-04-26 14:00 17.80630 -64.80444 12028 ft 153 kts 303°
2026-04-26 14:01 17.81486 -64.81681 12012 ft 159 kts 303°
2026-04-26 14:01 17.82139 -64.82623 12002 ft 160 kts 303°
2026-04-26 14:01 17.82795 -64.83575 12009 ft 162 kts 303°
2026-04-26 14:01 17.83460 -64.84535 12000 ft 163 kts 303°
2026-04-26 14:02 17.84127 -64.85500 11997 ft 164 kts 303°
2026-04-26 14:02 17.84794 -64.86466 12000 ft 164 kts 303°
2026-04-26 14:02 17.85455 -64.87423 12004 ft 164 kts 303°
2026-04-26 14:02 17.86123 -64.88392 12009 ft 164 kts 303°
2026-04-26 14:03 17.86802 -64.89374 12006 ft 164 kts 303°
2026-04-26 14:03 17.87461 -64.90330 12006 ft 164 kts 303°
2026-04-26 14:03 17.88138 -64.91311 12007 ft 164 kts 303°
2026-04-26 14:03 17.88799 -64.92268 12003 ft 164 kts 302°
2026-04-26 14:04 17.89466 -64.93235 11995 ft 164 kts 302°
2026-04-26 14:04 17.90133 -64.94203 11999 ft 164 kts 302°
2026-04-26 14:04 17.90800 -64.95170 11998 ft 164 kts 302°
2026-04-26 14:04 17.91468 -64.96138 11996 ft 163 kts 302°
2026-04-26 14:05 17.92134 -64.97105 11997 ft 163 kts 302°
2026-04-26 14:05 17.92801 -64.98072 11997 ft 163 kts 302°
2026-04-26 14:05 17.93467 -64.99038 11996 ft 163 kts 302°
2026-04-26 14:05 17.94133 -65.00005 12001 ft 163 kts 302°
2026-04-26 14:06 17.94799 -65.00971 11994 ft 163 kts 302°
2026-04-26 14:06 17.95465 -65.01938 11999 ft 163 kts 302°
2026-04-26 14:06 17.96131 -65.02906 11998 ft 163 kts 302°
2026-04-26 14:06 17.96798 -65.03873 11991 ft 163 kts 302°
2026-04-26 14:07 17.97463 -65.04839 11988 ft 163 kts 302°
2026-04-26 14:07 17.98129 -65.05807 11995 ft 163 kts 302°
2026-04-26 14:07 17.98795 -65.06773 11993 ft 163 kts 302°
2026-04-26 14:07 17.99460 -65.07740 11989 ft 163 kts 302°
2026-04-26 14:08 18.00126 -65.08708 11989 ft 163 kts 302°
2026-04-26 14:08 18.00791 -65.09674 11992 ft 163 kts 302°
2026-04-26 14:08 18.01457 -65.10642 11989 ft 163 kts 302°
2026-04-26 14:08 18.02121 -65.11608 11986 ft 163 kts 302°
2026-04-26 14:09 18.02787 -65.12575 11993 ft 163 kts 302°
2026-04-26 14:09 18.03450 -65.13540 11993 ft 163 kts 302°
2026-04-26 14:09 18.04116 -65.14509 11991 ft 163 kts 302°
2026-04-26 14:09 18.04781 -65.15475 11992 ft 163 kts 302°
2026-04-26 14:10 18.05445 -65.16442 11992 ft 163 kts 302°
2026-04-26 14:10 18.06110 -65.17410 11985 ft 163 kts 302°
2026-04-26 14:10 18.06776 -65.18377 11993 ft 163 kts 302°
2026-04-26 14:10 18.07441 -65.19345 11992 ft 163 kts 302°
2026-04-26 14:11 18.08769 -65.21278 11992 ft 163 kts 302°
2026-04-26 14:11 18.09433 -65.22246 11995 ft 163 kts 302°
2026-04-26 14:11 18.10096 -65.23211 11992 ft 163 kts 302°
2026-04-26 14:12 18.10760 -65.24177 11993 ft 163 kts 302°
2026-04-26 14:12 18.11423 -65.25144 11992 ft 163 kts 302°
2026-04-26 14:12 18.12086 -65.26110 11993 ft 163 kts 302°
2026-04-26 14:12 18.12749 -65.27076 11993 ft 163 kts 302°
2026-04-26 14:13 18.13855 -65.28689 11994 ft 165 kts 302°
2026-04-26 14:13 18.14531 -65.29672 11987 ft 166 kts 302°
2026-04-26 14:13 18.15428 -65.30980 11982 ft 164 kts 302°
2026-04-26 14:14 18.15870 -65.31625 11988 ft 164 kts 302°
2026-04-26 14:14 18.16533 -65.32593 11987 ft 163 kts 302°
2026-04-26 14:14 18.17197 -65.33561 11985 ft 163 kts 302°
2026-04-26 14:14 18.17858 -65.34526 11986 ft 163 kts 302°
2026-04-26 14:15 18.18520 -65.35492 11986 ft 163 kts 302°
2026-04-26 14:15 18.19181 -65.36455 11984 ft 163 kts 302°
2026-04-26 14:15 18.19841 -65.37418 11982 ft 158 kts 302°
2026-04-26 14:15 18.20484 -65.38349 11541 ft 161 kts 302°
2026-04-26 14:16 18.21140 -65.39307 11156 ft 160 kts 302°
2026-04-26 14:16 18.21785 -65.40252 10783 ft 159 kts 303°
2026-04-26 14:16 18.22428 -65.41191 10416 ft 158 kts 303°
2026-04-26 14:16 18.23068 -65.42128 10055 ft 157 kts 303°
2026-04-26 14:17 18.23705 -65.43056 9676 ft 156 kts 304°
2026-04-26 14:17 18.24341 -65.43987 9279 ft 156 kts 304°
2026-04-26 14:17 18.24976 -65.44915 8893 ft 157 kts 304°
2026-04-26 14:17 18.25615 -65.45848 8512 ft 157 kts 303°
2026-04-26 14:18 18.26252 -65.46780 8146 ft 157 kts 303°
2026-04-26 14:18 18.26889 -65.47711 7784 ft 157 kts 303°
2026-04-26 14:18 18.27528 -65.48644 7425 ft 157 kts 303°
2026-04-26 14:18 18.28166 -65.49578 7076 ft 157 kts 303°
2026-04-26 14:19 18.28807 -65.50515 6730 ft 158 kts 303°
2026-04-26 14:19 18.29451 -65.51459 6390 ft 159 kts 303°
2026-04-26 14:19 18.30098 -65.52402 6048 ft 159 kts 304°
2026-04-26 14:19 18.30741 -65.53352 6001 ft 162 kts 302°
2026-04-26 14:20 18.31408 -65.54335 5998 ft 167 kts 303°
2026-04-26 14:20 18.32096 -65.55336 6002 ft 170 kts 303°
2026-04-26 14:20 18.32789 -65.56347 5999 ft 171 kts 303°
2026-04-26 14:20 18.33485 -65.57363 6000 ft 171 kts 303°
2026-04-26 14:21 18.34173 -65.58369 5999 ft 172 kts 303°
2026-04-26 14:21 18.34869 -65.59390 5999 ft 172 kts 303°
2026-04-26 14:21 18.35566 -65.60410 5996 ft 171 kts 303°
2026-04-26 14:21 18.36260 -65.61426 5995 ft 171 kts 303°
2026-04-26 14:22 18.36953 -65.62443 6015 ft 172 kts 303°
2026-04-26 14:22 18.37439 -65.63578 5980 ft 169 kts 279°
2026-04-26 14:22 18.37659 -65.64690 5964 ft 143 kts 280°
2026-04-26 14:22 18.37875 -65.65730 5592 ft 147 kts 279°
2026-04-26 14:23 18.38082 -65.66769 5284 ft 145 kts 279°
2026-04-26 14:23 18.38291 -65.67808 4949 ft 145 kts 279°
2026-04-26 14:23 18.38502 -65.68841 4602 ft 144 kts 279°
2026-04-26 14:23 18.38711 -65.69865 4238 ft 143 kts 279°
2026-04-26 14:24 18.38919 -65.70887 3991 ft 143 kts 279°
2026-04-26 14:24 18.39127 -65.71947 3993 ft 153 kts 280°
2026-04-26 14:24 18.39355 -65.73060 3993 ft 158 kts 280°
2026-04-26 14:24 18.39590 -65.74201 3992 ft 160 kts 279°
2026-04-26 14:25 18.39827 -65.75353 3987 ft 162 kts 280°
2026-04-26 14:25 18.40023 -65.76517 3986 ft 161 kts 270°
2026-04-26 14:25 18.40015 -65.77697 3977 ft 163 kts 267°
2026-04-26 14:25 18.40046 -65.78891 3980 ft 163 kts 270°
2026-04-26 14:26 18.40093 -65.80082 4036 ft 155 kts 271°
2026-04-26 14:26 18.40142 -65.81232 3513 ft 161 kts 271°
2026-04-26 14:26 18.40265 -65.82403 3025 ft 160 kts 277°
2026-04-26 14:26 18.40435 -65.83556 2671 ft 156 kts 278°
2026-04-26 14:27 18.40556 -65.84680 2052 ft 162 kts 265°
2026-04-26 14:27 18.40400 -65.85758 1970 ft 136 kts 256°
2026-04-26 14:27 18.40228 -65.86671 1970 ft 122 kts 257°
2026-04-26 14:27 18.40073 -65.87525 1950 ft 116 kts 257°
2026-04-26 14:28 18.39929 -65.88310 1966 ft 104 kts 256°
2026-04-26 14:28 18.39773 -65.89169 2051 ft 139 kts 257°
2026-04-26 14:28 18.39557 -65.90291 1995 ft 159 kts 256°
2026-04-26 14:28 18.39338 -65.91420 2015 ft 162 kts 257°
2026-04-26 14:29 18.39093 -65.92611 1962 ft 170 kts 256°
2026-04-26 14:29 18.38859 -65.93807 1974 ft 163 kts 258°
2026-04-26 14:29 18.38727 -65.94967 1970 ft 158 kts 267°
2026-04-26 14:29 18.38710 -65.96143 1990 ft 165 kts 267°
2026-04-26 14:30 18.38665 -65.97351 1985 ft 165 kts 266°
2026-04-26 14:30 18.38633 -65.98574 1987 ft 168 kts 266°
2026-04-26 14:30 18.38607 -65.99810 1972 ft 168 kts 268°
2026-04-26 14:30 18.38601 -66.01013 1917 ft 165 kts 275°
2026-04-26 14:31 18.39025 -66.01973 1643 ft 135 kts 309°
2026-04-26 14:31 18.39825 -66.02398 1203 ft 128 kts 345°
2026-04-26 14:31 18.40672 -66.02531 877 ft 118 kts 358°
2026-04-26 14:31 18.41496 -66.02520 480 ft 114 kts
2026-04-26 14:32 18.42224 -66.02408 309 ft 103 kts 10°
2026-04-26 14:32 18.42937 -66.02176 245 ft 111 kts 22°
2026-04-26 14:32 18.43346 -66.01548 93 ft 114 kts 83°
2026-04-26 14:32 18.43362 -66.00805 20 ft 89 kts 91°
2026-04-26 14:33 18.43362 -66.00337 16 ft 16 kts 77°
2026-04-26 14:33 18.43440 -66.00172 17 ft 30 kts 57°
2026-04-26 14:33 18.43465 -65.99980 18 ft 24 kts 90°
2026-04-26 14:33 18.43467 -65.99815 18 ft 21 kts 87°
2026-04-26 14:34 18.43465 -65.99664 18 ft 20 kts 89°
2026-04-26 14:34 18.43490 -65.99554 18 ft 14 kts 27°
2026-04-26 14:34 18.43562 -65.99573 18 ft 6 kts 268°
2026-04-26 14:34 18.43560 -65.99627 18 ft 8 kts 270°
2026-04-26 14:35 18.43586 -65.99682 18 ft 10 kts 348°
2026-04-26 14:35 18.43638 -65.99690 18 ft 7 kts 280°
2026-04-26 14:35 18.43638 -65.99703 18 ft 0 kts 267°